Presure
287 274 295 281 255 256 254 249 270 261 259 259 302 267 253 250 236 254 253 231 215 236 231 220 212 213 207 203 205 207 198 170 192 193 188 188 187 188 191 190 198 193 195 200 204 201 201 200 197 192 191 188 188 166
286 282 261 261 264 271 263 221 260 283 280 299 264 257 252 241 230 274 262 234 224 213 215 125 181 199 201 165 204 202 204 198 187 193 195 195 194 188 191 189 198 168 192 205 204 207 210 206 197 187 188 197 191 203
274 266 248 231 251 262 248 266 292 278 239 288 258 246 244 232 257 270 248 235 225 214 212 212 208 207 207 203 202 195 207 199 191 191 186 192 193 185 185 188 187 182 201 197 197 207 206 202 194 197 193 203 194 191
257 258 250 250 252 262 255 282 268 300 275 251 246 240 233 244 259 262 227 224 224 218 208 210 207 209 196 201 205 205 209 201 196 194 188 194 193 195 190 187 189 196 193 193 196 158 169 191 198 192 180 190 192 194
262 266 272 233 280 269 283 288 292 265 251 244 240 230 248 255 253 242 249 217 224 213 219 200 210 208 201 204 202 195 212 201 194 195 194 185 192 192 193 193 186 176 195 190 165 199 200 197 181 195 196 193 192 188
217 253 264 269 230 264 289 254 258 250 244 239 232 227 253 256 239 242 248 229 215 210 206 216 207 210 208 199 196 203 212 206 202 199 196 196 198 190 189 188 187 193 200 115 198 196 191 194 188 190 193 187 191 194
255 236 265 265 252 298 257 252 248 248 231 238 227 224 245 237 242 244 230 225 204 206 198 187 202 210 201 199 192 190 199 205 207 206 198 196 201 199 194 188 195 199 189 200 195 201 197 196 188 181 195 194 200 204
246 261 264 267 288 261 249 238 235 239 233 231 235 246 244 238 240 225 236 226 214 213 203 209 192 200 198 193 199 207 193 205 204 195 198 197 201 200 195 194 192 198 206 202 194 197 198 206 205 208 213 214 215 214
255 245 283 312 268 254 241 243 239 232 234 225 238 253 245 237 233 231 234 226 222 216 205 205 192 195 209 200 199 204 197 204 207 200 207 201 204 199 186 182 197 200 203 202 202 205 207 207 207 207 214 220 234 241
268 281 300 290 254 248 240 240 235 235 229 219 249 249 231 232 221 231 229 218 211 213 208 205 205 204 200 201 203 212 207 206 204 202 200 200 200 206 206 206 205 206 206 207 208 198 208 209 217 230 238 234 228 210
272 274 254 274 253 248 235 241 228 236 227 216 244 248 244 224 225 232 226 226 220 215 209 207 207 207 203 204 208 211 207 213 205 199 199 202 204 204 203 201 200 214 215 211 213 219 228 238 234 222 206 205 205 209
263 252 280 264 252 242 238 239 230 236 225 215 217 225 245 221 238 232 216 227 225 215 207 207 216 207 212 204 208 209 205 208 201 206 204 197 204 202 206 213 209 214 225 237 218 209 201 204 204 209 216 217 217 216
250 241 273 255 236 245 240 237 228 236 226 221 221 222 214 251 257 244 231 229 212 218 222 220 221 221 216 208 205 205 204 192 217 219 210 208 211 222 233 237 234 212 202 198 204 203 204 213 214 216 215 213 224 228
269 277 267 248 245 248 237 236 232 235 228 225 211 219 215 208 220 210 213 251 245 228 212 211 228 226 221 215 191 216 214 179 209 226 224 225 203 224 206 204 208 208 204 202 205 213 215 215 213 213 224 222 224 228
275 239 266 241 244 242 239 246 224 236 231 225 229 217 218 213 209 211 212 231 223 205 222 230 230 229 228 225 225 226 224 203 195 195 201 203 201 202 203 208 210 210 211 214 214 215 210 223 225 227 227 232 239 249
271 253 240 258 248 246 234 237 234 228 245 235 229 225 215 219 216 207 210 212 207 202 185 191 191 193 197 203 215 207 210 210 207 207 206 206 208 211 215 219 219 217 214 213 219 226 229 233 231 235 246 255 254 254
270 267 247 269 258 244 247 234 236 232 232 238 238 228 231 218 214 220 219 211 206 205 206 209 211 208 207 205 205 207 208 208 211 212 216 213 216 220 215 215 224 224 224 233 236 236 237 245 250 257 255 271 270 245
275 267 252 232 267 251 247 239 237 244 239 234 234 238 230 233 230 221 219 219 217 216 215 212 211 211 213 214 212 213 214 216 219 217 216 216 224 225 224 230 236 236 238 245 248 252 256 259 269 274 241 249 268 284
267 276 275 257 228 258 265 254 249 255 219 234 239 245 246 242 235 235 234 230 226 225 223 220 221 220 221 221 219 215 211 211 222 225 229 232 234 237 236 237 246 251 257 254 260 278 274 256 249 271 285 294 319 331
269 263 264 268 264 262 252 263 261 253 246 243 238 239 242 243 241 243 246 241 235 234 233 236 237 237 235 235 238 239 238 238 240 242 241 240 241 246 255 259 266 266 273 273 244 265 277 277 273 300 316 358 371 374
264 264 268 270 263 262 260 265 265 246 246 246 261 259 258 258 259 257 249 248 246 246 244 251 252 252 248 247 247 247 247 249 254 259 262 271 283 259 260 262 265 251 287 289 293 301 317 302 372 371 367 364 364 371
268 263 254 250 265 260 254 245 261 264 266 267 266 267 270 260 258 263 265 265 269 262 263 261 265 265 266 265 256 252 244 257 260 264 272 272 274 277 273 273 273 280 285 290 286 290 376 371 366 365 370 367 353 371
266 256 252 259 249 252 254 255 261 247 263 264 257 272 277 247 252 255 255 256 261 254 252 258 265 266 261 255 251 259 268 270 267 263 266 269 267 275 281 304 310 318 342 375 375 374 371 365 364 359 349 369 365 374
261 262 257 257 243 237 246 252 246 248 251 262 256 260 255 251 264 267 261 262 268 262 263 273 268 263 264 263 275 273 286 297 300 299 301 294 293 331 372 315 317 302 357 365 368 367 357 351 349 365 363 373 384 380
266 257 251 271 255 250 251 248 261 255 255 257 260 259 254 257 268 268 269 270 259 260 266 269 270 267 266 270 270 265 267 281 279 287 324 323 395 393 387 375 378 368 361 351 346 343 355 363 366 377 383 378 383 380
281 265 272 271 263 267 267 268 265 262 266 267 270 266 263 263 259 266 264 268 271 271 274 280 283 292 290 289 306 292 319 321 398 399 389 385 379 374 367 357 350 345 340 348 355 360 370 377 376 377 377 370 365 355
281 289 288 295 291 283 278 278 275 270 273 286 289 289 286 285 284 286 287 291 291 285 286 293 321 328 326 330 336 376 400 393 387 377 372 364 356 345 341 337 346 352 352 360 376 377 374 374 367 359 353 350 429 335
298 297 295 293 287 283 286 290 290 289 289 292 294 297 309 319 318 324 323 295 303 319 327 329 334 383 389 386 384 379 376 373 355 348 344 339 338 339 359 354 355 368 374 370 369 370 360 353 348 421 417 332 310 373
314 320 320 322 323 322 324 324 325 328 332 331 332 328 325 327 340 342 353 430 423 402 387 381 378 372 367 360 353 346 340 338 338 340 352 361 361 363 369 369 369 368 377 363 355 356 375 424 407 390 313 371 359 356
388 414 443 443 440 443 437 437 435 425 427 442 457 456 442 428 416 411 399 384 375 370 365 359 353 346 338 337 335 342 342 353 353 351 364 368 372 367 359 377 366 353 355 366 391 411 399 387 377 369 357 350 462 458
398 397 400 394 395 394 393 393 398 398 395 393 395 399 396 399 394 380 378 373 367 363 357 353 349 346 345 345 351 350 351 363 372 372 365 362 375 362 353 353 367 366 408 404 389 379 370 360 352 422 455 450 421 359
372 367 369 369 370 367 364 368 364 365 366 367 369 370 369 368 365 365 365 362 359 355 353 352 353 353 349 349 364 374 370 361 362 368 359 350 352 371 372 423 407 395 381 375 364 352 347 448 450 437 371 355 347 345
354 356 356 355 354 352 352 352 353 352 351 352 350 350 351 350 349 348 350 348 347 350 354 360 367 369 366 360 359 364 360 353 350 360 376 418 420 407 392 381 374 368 358 349 346 448 428 376 360 351 348 347 344 343
Wind_Speed
80 63 76 66 64 64 64 48 50 58 58 60 57 70 64 64 62 59 66 65 57 61 59 56 52 52 48 42 41 39 37 30 36 37 37 35 36 36 36 35 33 34 33 38 42 44 41 44 45 47 49 51 52 48
74 67 62 62 60 54 59 53 60 48 57 53 67 66 63 63 59 54 67 63 60 55 56 25 43 48 45 30 41 39 39 40 40 39 38 37 38 38 39 41 37 28 39 41 42 45 43 46 48 51 54 56 55 60
57 56 57 49 54 52 54 48 46 55 50 64 66 61 62 59 59 59 65 63 62 58 57 54 50 51 48 43 41 40 43 43 41 39 39 40 40 43 43 42 41 42 44 44 43 45 45 47 50 53 55 59 58 60
52 52 56 55 53 50 53 44 51 52 60 63 60 60 58 58 59 65 66 59 62 61 54 54 51 51 44 43 43 42 44 45 43 43 42 42 43 47 48 45 47 51 49 44 48 38 43 53 55 55 54 61 63 67
46 44 40 35 41 45 48 48 51 61 62 62 60 57 57 61 63 65 67 59 62 55 56 48 52 52 48 46 44 43 44 46 44 46 46 44 47 50 50 50 55 43 51 49 42 56 57 59 57 65 66 66 67 69
30 45 45 44 42 47 42 53 61 62 63 60 58 55 61 67 63 65 65 62 55 53 51 55 52 52 51 47 44 43 43 46 48 48 48 48 52 51 52 54 61 57 57 18 57 57 57 61 62 66 69 68 75 80
44 45 45 48 51 52 58 61 62 62 54 56 54 52 60 60 62 59 58 59 56 57 52 42 49 53 49 48 45 43 45 46 47 49 51 51 53 53 56 59 66 65 57 61 58 64 65 65 63 62 76 77 84 89
44 41 47 46 52 63 64 58 53 58 54 52 52 57 59 59 58 57 56 61 58 57 51 55 47 52 51 49 50 51 47 51 49 47 52 53 54 57 57 63 62 64 68 67 65 69 71 79 80 85 89 90 93 93
44 41 38 42 62 66 62 61 55 52 53 51 55 61 60 59 56 57 57 59 59 59 56 58 51 52 58 56 54 55 52 52 52 49 53 51 54 57 56 58 67 69 71 73 74 76 78 80 83 85 91 95 98 97
35 34 40 54 62 64 60 57 53 54 54 52 55 62 55 57 56 58 59 57 56 59 59 59 60 59 56 55 56 63 56 55 52 53 55 57 60 68 70 72 73 73 74 77 79 74 83 85 90 96 94 93 91 88
35 40 51 61 61 64 56 59 51 53 53 50 51 58 62 54 54 58 58 59 59 56 58 61 63 64 58 58 59 59 55 60 52 54 59 60 65 71 70 67 69 80 82 80 83 88 92 92 91 89 87 88 90 94
43 50 48 63 64 64 59 58 53 55 54 51 51 51 55 52 59 53 47 57 60 61 62 63 69 59 66 53 57 60 57 59 54 61 60 60 74 74 77 81 80 84 88 90 83 81 81 84 86 91 95 97 99 101
51 52 56 66 58 64 60 57 52 54 53 53 52 52 46 49 54 54 56 63 56 62 70 70 71 71 67 59 54 56 54 51 69 71 68 75 80 84 82 83 82 78 76 78 83 84 87 93 94 96 98 99 107 111
44 49 57 64 60 64 60 58 55 56 55 55 47 50 47 41 43 49 51 64 70 69 59 57 70 70 70 65 51 72 66 46 63 76 80 82 68 74 72 76 79 81 83 84 89 93 95 97 96 99 105 105 109 113
43 56 58 60 62 61 58 59 51 57 58 54 55 49 49 51 52 54 57 57 60 56 61 65 68 69 69 67 70 71 72 62 61 64 68 70 72 74 77 81 84 87 90 93 95 97 92 103 106 110 111 115 119 124
48 56 57 65 63 63 55 57 56 52 59 61 56 56 55 56 56 54 53 55 53 54 49 54 54 57 60 62 66 66 68 69 69 71 72 74 78 83 88 89 91 92 92 93 97 105 108 111 111 115 121 123 123 123
53 55 56 62 66 62 65 56 60 58 54 56 58 57 61 58 54 57 59 60 59 59 61 62 64 65 65 66 69 71 72 73 76 79 84 84 87 90 88 88 95 98 101 108 110 111 114 119 121 122 121 125 122 112
53 55 56 48 63 64 64 60 59 64 59 55 58 62 61 63 66 65 64 66 67 68 69 70 71 73 74 76 77 78 81 84 87 87 85 84 93 94 94 101 105 107 111 115 117 118 119 120 122 119 106 113 119 110
53 53 55 53 48 53 62 66 64 65 45 56 59 62 65 67 67 68 70 72 73 75 76 77 80 80 81 83 83 81 77 77 90 96 99 101 104 107 106 108 113 115 117 118 119 115 115 113 111 114 110 112 113 112
53 52 52 52 50 52 53 57 60 63 64 63 62 62 64 67 68 70 73 76 78 80 81 83 85 88 90 91 93 94 95 97 100 102 103 105 109 111 113 113 112 113 112 109 106 109 108 108 108 113 110 102 94 91
49 52 54 54 51 50 51 53 55 58 58 60 61 63 66 67 69 71 73 72 73 74 77 81 85 88 90 92 94 96 98 101 104 104 104 98 91 106 106 108 109 109 106 107 110 115 116 108 92 91 90 91 91 89
52 52 49 49 55 53 51 53 54 55 57 58 58 59 60 62 64 63 64 67 68 74 77 79 80 82 83 87 91 92 91 98 98 95 90 93 94 97 96 99 100 101 104 108 106 109 85 86 87 87 86 86 87 86
50 51 51 52 52 52 55 56 58 57 60 60 59 64 68 65 65 66 68 70 71 76 76 77 77 80 85 87 89 90 89 85 85 86 91 93 94 100 103 111 108 104 95 82 81 81 80 82 83 84 85 85 84 85
56 58 59 58 56 57 58 59 59 61 62 64 63 63 65 68 68 69 71 73 77 75 77 80 75 75 77 79 94 92 100 104 106 107 107 106 109 98 83 98 98 102 81 78 76 77 80 82 83 83 83 84 82 78
63 59 56 68 57 57 59 58 67 61 61 63 66 65 65 67 78 79 81 85 74 75 81 87 88 84 84 87 88 86 90 102 100 103 96 96 68 66 65 69 68 70 72 77 79 81 81 81 82 82 80 77 75 73
75 65 76 73 65 70 70 72 71 69 73 73 76 76 75 75 72 78 79 82 85 83 87 93 94 100 98 98 98 93 93 93 64 61 62 62 63 64 66 69 72 75 77 77 77 79 79 78 77 76 74 73 72 72
67 73 76 72 78 78 78 78 77 76 78 81 82 85 86 88 88 91 92 93 92 91 91 94 92 90 91 89 88 70 55 56 56 59 60 62 65 69 72 75 75 75 76 77 75 74 73 72 71 71 71 71 62 65
69 71 72 74 74 74 78 80 81 81 82 83 85 87 87 85 86 85 87 88 89 88 88 88 87 65 59 58 57 57 57 57 62 65 67 70 71 73 71 72 74 73 72 71 70 69 68 68 68 63 59 64 67 61
64 65 65 67 69 71 73 74 76 78 79 79 79 80 81 82 78 78 77 42 41 50 56 57 56 56 57 59 60 62 65 67 68 69 69 68 69 69 69 69 69 69 68 67 66 66 66 59 58 57 64 59 60 62
42 29 8 6 6 5 7 9 7 9 8 9 12 18 26 32 35 36 38 46 51 53 55 57 59 60 63 64 65 65 66 66 67 68 67 67 66 66 66 67 65 64 65 66 64 59 57 56 56 56 57 59 45 43
10 10 8 12 10 11 11 11 10 11 11 11 11 13 17 20 25 35 38 43 46 49 52 55 57 60 62 64 64 65 66 66 65 65 65 65 64 64 64 65 65 65 60 57 56 56 56 58 59 50 45 42 41 42
18 20 18 18 16 17 19 15 17 17 16 17 17 19 21 25 29 33 36 39 43 47 51 54 56 58 61 63 62 61 62 63 63 63 63 63 64 65 64 58 57 55 55 55 56 57 59 47 44 41 42 44 45 46
23 23 23 22 22 22 22 22 22 23 24 25 27 29 31 34 37 40 42 45 48 51 53 54 55 56 57 58 59 60 60 60 61 62 63 60 57 55 54 55 55 55 56 57 59 45 43 44 45 47 47 47 48 49
Wind_Direction
146 149 148 146 151 157 164 177 167 177 177 180 185 177 181 182 187 185 183 190 197 191 192 195 201 200 203 208 213 214 218 233 228 232 243 249 254 258 262 267 269 273 277 277 273 275 280 285 287 288 290 293 297 303
146 146 143 149 154 154 164 189 176 181 179 184 176 178 182 185 188 181 182 189 194 198 197 210 205 207 211 223 215 219 221 224 233 235 242 247 252 260 264 269 273 280 277 273 277 279 278 279 282 286 291 291 299 300
144 149 154 173 160 166 172 177 180 179 181 176 176 182 185 187 182 182 186 190 194 198 200 204 207 210 212 216 219 225 222 229 236 241 249 249 254 261 265 269 276 278 277 282 288 281 282 280 284 288 296 297 298 299
151 155 161 166 169 175 174 181 179 180 172 176 182 184 188 186 182 183 191 195 196 197 204 206 210 212 222 220 223 226 226 232 238 243 251 254 258 262 266 272 275 276 281 288 289 293 294 293 294 295 294 296 298 299
158 159 162 168 176 176 178 177 174 172 174 182 184 188 183 182 183 188 191 198 199 204 202 215 211 214 221 222 226 232 229 234 243 246 251 259 260 263 268 273 276 280 283 286 291 291 292 292 293 296 297 297 299 300
168 169 173 171 174 172 176 169 175 178 182 185 187 190 184 185 192 191 192 199 204 208 212 211 217 217 221 227 232 236 233 235 241 248 254 258 260 269 274 278 279 284 284 309 289 290 290 291 291 293 296 298 300 301
174 173 182 178 172 171 172 176 182 182 188 188 190 192 186 191 193 192 196 200 208 210 217 226 224 220 229 234 240 244 244 244 246 249 254 259 262 267 271 276 277 280 284 287 290 290 291 292 291 292 296 297 297 298
181 181 181 180 171 173 178 184 185 186 191 192 195 193 190 195 195 197 198 203 209 212 220 221 230 231 235 240 242 243 248 248 251 259 261 265 267 269 272 275 282 283 283 287 289 289 288 289 292 293 294 296 297 298
188 185 184 173 174 178 185 187 187 190 192 196 195 190 189 194 197 199 199 205 209 213 221 223 234 237 235 241 245 245 247 252 255 263 260 272 272 275 273 278 281 284 286 287 288 290 292 294 294 294 295 296 297 297
188 183 173 175 184 185 189 190 190 192 195 198 202 197 203 200 206 204 205 211 216 218 225 230 233 236 242 246 250 245 254 258 262 268 274 277 277 277 278 279 281 284 287 289 291 291 292 294 295 295 295 296 298 301
178 182 183 183 188 191 195 194 196 194 199 201 202 202 204 213 212 209 213 214 220 225 232 235 237 240 246 250 253 254 262 262 267 271 273 275 276 276 278 283 284 287 288 289 290 290 291 291 293 295 297 298 300 302
182 183 182 184 189 194 198 197 200 198 202 204 210 210 213 212 214 217 221 223 226 232 238 240 239 245 248 258 259 260 264 266 268 269 275 276 276 278 281 282 284 286 286 286 289 291 293 293 295 297 298 301 301 302
187 190 186 188 196 197 200 203 205 205 208 210 214 217 217 219 220 222 229 226 235 235 236 241 244 247 253 259 263 264 268 267 268 269 271 271 273 275 278 279 281 285 288 290 290 293 295 296 298 299 300 301 303 304
196 187 190 194 198 198 204 206 209 212 212 214 214 219 219 220 220 224 231 233 233 239 249 254 253 253 258 263 264 264 266 269 269 269 267 270 275 277 280 282 283 285 288 290 292 293 294 295 297 299 300 301 301 303
200 196 193 200 202 205 208 209 216 216 218 219 220 221 221 221 222 226 230 234 237 237 243 246 250 253 256 259 261 263 263 266 269 271 274 276 278 281 283 284 285 286 287 288 289 291 294 297 297 297 298 298 299 298
202 199 203 201 206 209 214 215 218 222 222 222 224 224 228 228 229 232 237 242 246 248 251 252 256 258 260 263 264 267 268 268 270 273 276 279 281 282 282 282 283 284 286 289 292 294 294 294 295 297 297 297 299 300
206 204 206 202 207 212 215 222 223 225 226 228 229 230 231 234 236 239 241 242 244 247 251 254 256 258 260 263 266 268 271 274 277 279 278 278 278 279 281 285 286 289 291 291 292 292 294 294 295 295 297 296 296 301
210 210 210 216 211 215 219 225 230 231 232 233 235 236 236 238 239 240 242 245 248 251 253 256 259 261 264 266 267 269 271 272 273 275 278 282 282 284 286 287 288 289 290 289 289 290 291 293 293 291 297 298 297 299
214 216 218 218 220 220 220 224 228 229 228 235 240 240 240 242 244 245 247 249 251 253 256 257 260 262 264 265 267 270 274 278 276 277 279 281 283 285 287 288 288 288 288 289 290 289 290 293 295 296 297 299 302 301
218 223 226 226 226 227 229 230 232 235 237 239 243 243 243 244 247 249 251 251 253 255 257 259 260 262 264 266 268 269 271 274 276 278 280 282 282 283 284 285 284 284 284 286 292 291 293 295 295 302 301 300 302 303
225 226 229 231 234 235 235 236 236 238 240 242 244 245 246 248 249 250 252 255 257 258 259 260 261 263 266 268 270 271 273 274 276 277 278 278 285 282 282 282 281 287 295 297 299 300 299 300 298 299 300 301 302 303
229 233 232 233 240 242 243 239 250 251 252 253 252 252 254 252 253 256 258 260 262 259 260 263 265 265 267 268 270 272 275 273 274 277 280 283 291 294 292 292 293 296 297 298 298 299 296 297 298 299 299 301 303 305
240 231 234 241 242 242 248 250 255 247 259 259 257 265 264 254 258 261 263 264 267 263 265 268 271 272 269 270 272 273 282 284 282 282 286 288 288 291 292 295 294 294 295 293 293 294 296 297 299 300 302 304 306 307
240 243 244 246 244 241 243 246 246 249 253 261 257 261 259 259 267 271 268 269 274 269 275 281 280 277 280 280 286 286 288 290 290 290 291 292 293 292 291 294 294 296 293 294 296 297 297 299 301 302 304 305 306 307
242 245 246 248 250 251 255 256 262 262 262 265 266 267 268 270 274 275 276 277 275 277 279 281 281 282 284 284 285 285 287 290 290 290 289 289 288 289 289 289 290 293 294 294 296 299 300 302 302 303 305 306 307 308
242 247 248 251 255 258 259 260 262 265 266 266 267 269 270 271 272 274 274 277 278 279 280 281 282 282 284 285 285 286 286 288 286 286 286 287 288 289 291 292 292 293 295 297 299 300 301 302 304 305 306 307 308 309
245 246 247 250 250 254 257 259 261 263 265 264 265 266 268 270 271 272 273 274 275 278 280 281 279 280 282 284 286 285 283 284 286 287 287 289 291 290 291 293 295 297 298 299 300 301 303 304 305 306 306 307 309 310
246 248 250 252 254 256 257 258 259 260 262 263 264 265 266 267 269 270 271 276 277 277 277 278 280 280 280 281 282 284 286 288 288 288 288 289 291 293 292 294 295 296 298 299 301 302 302 303 304 307 308 308 309 310
251 252 252 254 255 256 257 258 260 261 262 262 263 264 266 267 267 269 270 263 264 267 271 275 277 279 281 283 284 285 286 286 288 290 290 291 292 293 295 296 297 298 300 300 300 302 304 306 306 307 306 308 309 310
268 271 286 300 300 303 286 278 268 273 308 292 268 238 237 242 252 255 260 261 264 268 271 274 278 280 281 282 283 285 286 287 289 291 292 294 295 295 296 298 299 300 301 302 303 305 305 305 306 306 306 307 313 315
267 271 274 277 287 286 290 294 301 294 283 277 268 259 254 252 253 256 259 262 267 270 272 274 277 279 280 282 284 287 289 291 293 294 295 296 297 297 298 299 300 301 302 303 304 304 305 306 306 310 312 314 315 311
262 265 264 263 261 264 267 271 273 277 280 281 277 272 267 265 264 266 268 270 271 273 274 276 279 281 283 286 288 291 291 292 294 295 295 295 296 298 299 301 301 301 302 303 303 304 305 309 310 311 307 307 307 308
267 268 269 270 272 273 273 274 275 274 275 276 274 273 272 270 269 270 273 274 276 278 280 282 285 287 288 289 290 291 292 293 294 296 298 299 300 300 300 300 301 301 302 302 303 307 307 305 304 304 305 306 308 308